SCP
0 0 0 0 0 0 0 0 0 0 0 0 0 0 0 0 0 0 0 0 0 0 0 0 0 0 0 0 0 0 0 0 0 0 0 0 0 0 0 0 0 0 0 0 0 0 0 0 0
0 0 0 0 0 0 0 0 0 0 0 0 0 0 0 0 0 0 0 0 0 0 0 0 0 0 0 0 0 0 0 0 0 0 0 0 0 0 0 0 0 0 0 0 0 0 0 0 0
0 0 0 0 0 0 0 0 0 0 0 0 0 0 0 0 0 0 0 0 0 0 0 0 0 0 0 0 0 0 0 0 0 0 0 0 0 0 0 0 0 0 0 0 0 0 0 0 0
0 0 0 0 0 0 0 0 0 0 0 0 0 0 0 0 0 0 0 0 0 0 0 0 0 0 0 0 0 0 0 0 0 0 0 0 0 0 0 0 0 0 0 0 0 0 0 0 0
0 0 0 0 0 0 0 0 0 0 0 0 0 0 0 0 0 0 0 0 0 0 0 0 0 0 0 0 0 0 0 0 0 0 0 0 0 0 0 0 0 0 0 0 0 0 0 0 0
0 0 0 0 0 0 0 0 0 0 0 0 0 0 0 0 0 0 0 0 0 0 0 0 0 0 0 0 0 0 0 0 0 0 0 0 0 0 0 0 0 0 0 0 0 0 0 0 0
0 0 0 0 0 0 0 0 0 0 0 0 0 0 0 0 0 0 0 0 0 0 0 0 0 0 0 0 0 0 0 0 0 0 0 0 0 0 0 0 0 0 0 0 0 0 0 0 0
0 0 0 0 0 0 0 0 0 0 0 0 0 0 0 0 0 0 0 0 0 0 0 0 0 0 0 0 0 0 0 0 0 0 0 0 0 0 0 0 0 0 0 0 0 0 0 0 0
0 0 0 0 0 0 0 0 0 0 0 0 0 0 0 0 0 0 0 0 0 0 0 0 0 0 0 0 0 0 0 0 0 0 0 0 0 0 0 0 0 0 0 0 0 0 0 0 0
0 0 0 0 0 0 0 0 0 0 0 0 0 0 0 0 0 0 0 0 0 0 0 0 0 0 0 0 0 0 0 0 0 0 0 0 0 0 0 0 0 0 0 0 0 0 0 0 0
0 0 0 0 0 0 0 0 0 0 0 0 0 0 0 0 0 0 0 0 0 0 0 0 0 0 0 0 0 0 0 0 0 0 0 0 0 0 0 0 0 0 0 0 0 0 0 0 0
0 0 0 0 0 0 0 0 0 0 0 0 0 0 0 0 0 0 0 0 0 0 0 0 0 0 0 0 0 0 0 0 0 0 0 0 0 0 0 0 0 0 0 0 0 0 0 0 0
0 0 0 0 0 0 0 0 0 0 0 0 0 0 0 0 0 0 0 0 0 0 0 0 0 0 0 0 0 0 0 0 0 0 0 0 0 0 0 0 0 0 0 0 0 0 0 0 0
0 0 0 0 0 0 0 0 0 0 0 0 0 0 0 0 0 0 0 0 1 1 1 1 1 1 1 0 0 0 0 0 0 0 0 0 0 0 0 0 0 0 0 0 0 0 0 0 0
0 0 0 0 0 0 0 0 0 0 0 0 0 0 0 0 0 0 0 0 1 1 1 1 1 1 1 1 0 0 0 0 0 0 0 0 0 0 0 0 0 0 0 0 0 0 0 0 0
0 0 0 0 0 0 0 0 0 0 0 0 0 0 0 0 0 1 1 1 1 1 1 1 1 1 1 1 1 1 0 0 0 0 0 0 0 0 0 0 0 0 0 0 0 0 0 0 0
0 0 0 0 0 0 0 0 0 0 0 0 0 0 0 0 1 1 1 1 1 2 2 1 1 1 1 1 1 1 1 1 1 1 0 0 0 0 0 0 0 0 0 0 0 0 0 0 0
0 0 0 0 0 0 0 0 0 0 0 0 0 0 0 0 1 1 1 1 1 2 2 1 1 1 1 1 1 1 1 1 1 1 1 0 0 0 0 0 0 0 0 0 0 1 1 1 1
0 0 0 0 0 0 0 0 0 0 0 0 0 0 0 0 1 1 1 1 1 2 2 1 1 1 1 1 1 1 1 1 1 1 1 1 0 0 0 0 0 0 0 0 0 1 1 1 1
0 0 0 0 0 0 0 0 0 0 0 0 0 0 0 1 1 1 1 1 1 1 1 1 1 1 1 1 1 1 1 1 0 1 1 1 1 1 1 1 0 0 1 0 0 0 1 1 1
0 0 0 0 0 0 0 0 0 0 0 0 0 0 0 1 1 1 1 1 1 1 1 1 1 1 1 1 1 1 1 1 0 0 1 1 1 1 1 1 1 1 1 1 1 0 0 1 1
0 0 0 0 0 0 0 0 0 0 0 0 0 0 0 0 1 1 1 1 1 1 1 1 1 1 1 1 1 1 1 1 0 1 1 1 1 1 1 1 1 1 1 1 1 1 1 1 1
0 0 0 0 0 0 0 0 0 0 0 0 0 0 0 0 1 1 1 1 1 1 1 1 2 2 1 1 1 1 1 1 1 1 1 1 1 1 1 1 1 1 1 1 1 1 1 1 1
0 0 0 0 0 0 0 0 0 0 0 0 0 0 0 0 1 1 1 1 1 1 1 1 2 2 1 1 1 1 1 1 1 1 1 1 1 1 1 1 1 1 1 1 1 1 1 1 1
0 0 0 0 0 0 0 0 0 0 0 0 0 0 0 0 1 1 1 1 1 1 1 1 2 2 2 1 1 1 1 1 1 1 1 1 1 1 1 1 1 1 1 1 1 1 1 1 1
0 0 0 0 0 0 0 0 0 0 0 0 0 0 0 0 1 1 1 1 1 1 1 1 2 2 2 1 1 1 1 1 1 1 1 1 1 1 1 1 1 1 1 1 1 1 1 1 1
0 0 0 0 0 0 0 0 0 0 0 0 0 0 0 0 1 1 1 1 1 1 1 1 2 2 2 2 1 1 1 1 1 1 1 1 1 1 1 1 1 1 1 1 1 1 1 1 1
0 0 0 0 0 0 0 0 0 0 0 0 0 0 0 1 1 1 1 1 1 1 1 1 2 2 2 2 1 1 1 1 1 1 1 1 1 1 1 1 1 1 1 1 1 1 1 1 1
0 0 0 0 0 0 0 0 0 0 0 0 0 0 0 1 1 1 1 1 1 1 1 1 2 2 2 2 2 2 1 1 1 1 1 1 1 1 1 1 1 1 1 1 1 1 1 1 1
0 0 0 0 0 0 0 0 0 0 0 0 0 0 0 1 0 0 1 1 1 1 1 1 1 2 2 2 2 2 2 2 1 1 1 1 1 1 1 1 1 1 1 1 1 1 1 1 1
Wind_Speed
8 10 10 7 6 4 1 5 11 12 12 12 11 11 14 15 11 10 10 14 18 17 15 14 13 12 11 10 10 9 8 8 7 7 7 7 7 6 6 6 5 4 4 4 4 5 4 4 4
9 12 10 6 5 3 2 7 11 12 10 10 10 12 14 15 13 12 11 14 17 16 14 13 13 12 11 10 9 8 8 7 7 7 6 6 6 6 6 5 5 4 4 4 4 4 4 4 4
12 15 9 6 6 4 5 9 10 11 8 8 10 11 11 11 12 10 11 14 16 16 15 14 14 12 11 10 9 8 8 8 7 7 7 7 7 6 6 6 5 4 5 5 4 4 3 3 2
9 8 6 5 6 1 6 9 8 8 8 8 8 9 12 11 11 12 12 14 16 17 16 15 14 13 11 10 9 8 8 7 7 7 7 7 7 6 6 6 6 6 5 5 5 4 3 2 2
10 7 7 6 5 2 6 7 7 7 7 9 9 11 12 13 14 13 11 12 15 16 15 15 14 13 12 10 9 8 7 7 6 6 6 6 6 6 6 7 7 7 5 5 5 4 3 2 1
8 7 7 6 4 2 5 6 7 7 7 7 10 11 10 12 12 11 10 11 14 16 15 14 14 13 12 10 9 7 7 6 6 5 5 6 6 6 6 6 6 5 4 4 4 3 2 1 0
10 10 10 9 4 2 4 5 5 6 6 5 8 9 10 11 11 11 10 11 13 14 14 12 12 12 12 10 9 8 6 5 5 4 4 5 5 5 5 5 5 4 4 3 3 3 1 0 1
10 9 12 9 5 2 4 4 4 4 5 6 5 6 10 12 12 11 10 10 12 12 12 11 11 10 10 9 9 8 7 5 5 4 4 4 4 5 5 5 5 4 3 2 2 1 1 1 2
13 10 11 8 3 3 3 2 5 5 5 5 6 8 14 15 13 11 10 9 10 10 9 9 9 9 8 9 9 8 7 6 4 4 4 4 3 4 4 5 6 5 4 3 3 2 2 3 3
11 9 10 6 2 2 3 2 3 3 5 6 8 10 15 14 12 11 10 10 9 9 8 7 7 7 6 6 6 4 4 5 3 2 3 2 1 1 3 7 7 6 5 5 4 4 4 4 2
12 11 9 6 3 0 2 1 1 2 4 7 10 11 11 13 11 10 9 9 9 9 7 7 7 6 5 4 4 2 2 3 2 2 1 1 0 1 2 3 4 4 5 4 4 3 2 2 1
12 10 8 6 4 3 3 3 2 1 2 8 11 14 12 11 11 10 8 9 9 9 8 7 6 5 5 4 3 2 2 2 1 2 1 1 0 0 1 1 1 1 1 1 1 1 0 0 1
11 10 8 6 5 5 5 5 4 3 5 9 11 13 12 11 11 11 10 9 10 9 8 7 6 6 5 3 1 2 2 2 2 2 1 1 1 1 1 1 0 0 0 1 1 1 1 1 2
9 10 8 8 8 7 8 7 7 5 6 8 11 11 10 11 11 10 9 9 9 9 8 6 6 6 4 3 1 1 1 1 2 1 2 1 1 1 1 0 0 0 1 1 1 1 1 1 2
9 10 11 11 11 9 8 9 7 7 7 8 10 10 9 8 10 10 9 8 9 8 8 6 6 6 4 3 1 1 0 1 1 2 2 1 1 1 0 0 0 1 0 1 1 1 1 2 2
11 13 13 12 11 10 10 9 7 9 9 8 8 9 9 7 8 9 9 8 9 8 8 5 6 7 4 2 1 1 1 1 1 1 2 1 1 1 0 0 0 0 0 1 0 1 2 1 1
13 13 14 13 11 9 9 7 6 8 9 8 8 9 9 8 7 8 9 8 8 8 8 5 5 5 4 3 1 1 1 1 1 1 1 1 1 0 0 0 1 1 0 0 0 2 1 1 0
11 13 13 11 8 8 9 9 8 9 10 9 9 9 9 9 7 9 9 9 9 9 8 6 5 4 3 2 1 1 1 1 1 1 1 1 0 0 0 0 0 1 1 1 1 1 1 1 0
14 13 11 8 6 8 9 10 8 8 8 9 10 9 9 9 8 9 9 10 10 9 8 6 5 4 2 2 2 1 1 0 0 1 1 1 0 1 0 0 0 0 0 0 0 1 1 1 1
14 13 11 7 5 6 8 9 8 7 7 7 9 9 8 9 9 9 9 10 10 9 8 7 6 5 3 2 1 1 1 1 1 1 1 1 1 1 1 1 1 1 0 0 1 1 0 0 1
13 12 11 9 6 7 9 10 8 7 6 6 7 8 9 10 10 9 9 9 10 9 9 7 6 5 4 3 2 1 1 1 1 1 1 1 1 1 1 1 1 1 1 1 1 0 1 1 0
11 11 11 12 10 7 8 8 7 8 7 6 7 7 8 9 11 10 10 9 9 10 9 7 6 5 4 4 3 3 3 2 1 1 1 1 1 1 2 1 1 1 1 1 1 1 1 0 0
11 11 11 13 11 11 9 9 6 8 7 7 7 6 7 8 10 10 10 10 9 9 9 8 7 5 5 4 3 3 2 2 1 1 2 2 2 1 1 1 1 1 1 1 1 1 0 0 0
10 11 11 11 10 12 10 9 6 5 9 9 7 5 6 6 7 8 8 8 8 8 8 9 8 6 5 5 4 3 2 2 1 1 2 2 2 2 2 1 1 1 1 1 1 1 1 0 0
9 9 6 7 8 9 10 9 3 4 8 8 7 6 6 6 6 7 8 8 7 7 8 8 9 7 6 5 4 4 3 2 2 2 2 2 2 2 2 2 1 1 1 2 1 1 1 1 1
9 10 7 8 8 8 9 6 3 3 5 8 7 4 6 5 5 5 6 6 6 6 6 7 7 7 7 6 5 4 3 3 2 2 2 2 1 1 2 2 2 2 1 1 1 2 2 1 1
9 9 10 11 12 10 5 4 5 6 5 6 8 5 4 5 4 4 5 5 5 5 5 6 6 6 6 6 5 4 4 3 2 2 2 2 1 2 3 3 2 2 1 1 1 1 1 2 2
11 9 7 8 8 9 6 5 4 8 7 6 6 6 5 6 5 5 3 4 4 4 4 5 5 5 6 6 5 5 4 4 2 2 2 2 1 1 3 3 3 2 2 1 1 2 2 2 1
9 10 9 8 8 7 7 3 3 4 5 6 5 5 6 5 5 4 3 4 4 3 3 4 5 5 4 4 4 4 4 4 3 3 2 2 2 2 2 2 3 3 2 1 1 2 2 2 2
9 9 8 7 7 8 6 1 4 6 7 5 6 6 6 5 3 2 3 4 4 3 2 3 3 4 5 4 4 3 3 3 3 2 2 3 3 3 2 2 2 2 2 2 1 1 2 2 2
Wind_Direction
231 238 232 246 246 251 291 67 73 69 66 56 52 56 57 54 56 83 104 106 108 110 115 112 107 104 100 96 90 85 82 76 74 75 73 71 68 68 66 67 73 90 98 99 97 98 101 99 97
253 248 242 244 254 263 90 78 74 73 76 76 67 66 69 68 76 97 107 111 114 116 117 111 112 108 104 99 93 87 83 79 78 78 75 74 72 71 73 69 73 87 97 102 100 96 98 97 94
263 261 263 243 243 251 81 79 81 83 81 80 76 66 60 77 85 100 115 120 117 114 112 115 116 112 108 103 97 91 86 83 80 78 75 75 75 73 70 65 69 90 94 94 95 92 91 90 86
260 243 237 261 274 28 80 94 94 89 80 71 70 78 75 78 94 110 124 122 119 117 116 120 122 118 114 109 103 96 91 85 82 81 80 79 77 74 69 64 66 90 91 87 82 75 79 79 69
246 256 245 255 270 64 83 96 105 91 82 78 77 85 91 94 105 119 125 120 119 116 119 125 125 123 121 118 113 106 99 91 86 84 84 83 81 80 74 71 69 76 80 84 84 73 66 66 61
255 253 257 256 244 105 92 96 101 91 86 92 99 97 96 113 118 124 121 117 116 118 119 126 131 131 130 129 126 119 112 105 98 92 93 94 90 91 89 84 80 81 80 86 91 90 82 74 118
259 275 274 271 241 134 94 87 92 99 107 104 108 107 118 124 127 128 122 119 115 117 123 134 138 140 141 141 138 133 129 123 118 111 109 115 117 116 113 105 95 90 83 82 88 82 82 171 228
258 280 282 271 250 145 100 96 89 85 95 89 97 118 135 133 135 132 129 124 120 122 129 138 140 144 150 147 148 145 147 145 143 144 146 147 148 147 143 135 121 117 117 115 117 116 194 216 240
255 260 271 269 258 124 111 123 105 97 93 83 76 98 128 136 139 141 137 130 122 122 128 138 139 144 148 146 141 151 158 160 163 161 169 181 178 165 157 140 143 154 164 179 186 206 215 223 231
238 246 262 282 293 123 150 179 116 139 118 105 95 106 128 140 148 152 149 142 136 132 133 133 133 135 136 128 134 152 157 150 170 144 171 199 180 143 135 144 163 177 187 193 205 218 228 233 230
239 242 264 278 292 314 186 198 197 192 146 136 134 140 146 153 154 154 152 146 139 136 134 131 125 123 122 116 129 135 135 139 164 135 138 146 115 136 121 150 168 190 197 203 193 211 238 230 209
248 247 254 265 287 269 240 227 233 265 96 134 143 151 159 167 161 154 150 149 144 142 140 133 126 117 105 99 116 137 124 127 125 123 110 81 29 32 95 128 147 179 179 172 161 159 179 331 24
248 254 251 253 256 258 249 228 220 199 132 129 140 151 165 166 161 156 156 158 149 144 140 129 118 106 99 91 93 111 111 120 110 122 137 92 61 26 47 25 23 44 64 112 105 99 88 40 40
255 256 251 248 245 238 241 234 221 183 156 150 153 159 167 166 161 153 153 152 145 139 136 128 123 113 112 112 92 69 84 118 122 117 100 98 80 28 32 25 354 55 59 32 67 83 92 71 47
263 261 249 238 233 229 230 233 221 176 169 167 160 162 157 162 158 154 154 153 143 140 134 138 139 128 130 131 163 117 98 87 81 87 81 63 74 66 349 11 264 47 177 133 79 85 96 89 71
248 245 246 238 225 213 222 230 204 170 176 175 161 154 149 162 167 158 153 151 142 139 134 145 147 137 140 141 157 121 92 90 88 101 95 67 38 61 337 248 74 298 247 109 140 99 88 76 61
237 237 241 232 214 214 222 234 206 178 180 175 167 159 156 158 167 151 148 143 133 129 131 140 128 133 145 147 153 130 93 88 88 90 83 63 5 36 135 281 22 285 317 81 83 89 100 117 128
241 241 241 235 209 216 222 226 197 192 182 178 173 164 161 161 169 150 144 138 131 127 130 133 122 119 129 132 137 104 82 63 72 85 89 80 292 293 274 140 4 334 27 49 66 91 92 90 61
264 264 261 243 203 221 223 221 201 196 187 178 169 161 162 158 154 147 150 145 138 134 135 139 139 130 139 140 151 156 149 161 99 115 114 120 296 288 232 348 149 345 63 29 5 113 154 154 111
261 266 267 260 216 241 247 235 204 186 187 183 165 159 163 157 152 152 154 152 147 145 149 154 150 150 165 145 151 178 175 187 166 118 136 167 196 230 197 183 175 159 172 101 335 345 294 233 120
257 262 265 262 236 237 261 247 212 172 174 183 170 166 165 161 160 159 158 158 157 156 160 160 155 157 168 154 166 178 163 213 177 172 172 187 212 205 234 182 188 207 183 177 212 271 275 277 110
256 255 268 269 254 245 242 255 226 182 175 186 183 169 171 163 163 166 165 167 166 162 161 153 154 156 163 169 179 188 190 205 201 190 180 192 209 217 201 195 196 222 174 163 197 167 269 236 263
265 274 268 271 266 259 249 249 238 176 180 194 184 173 166 163 161 162 166 168 167 164 162 159 155 161 167 180 177 201 209 204 198 185 181 188 188 215 236 184 188 209 210 181 162 124 310 306 290
267 272 264 264 265 256 257 254 241 192 183 190 172 163 148 150 151 155 158 152 161 165 163 158 157 165 170 181 183 203 213 215 200 184 185 187 181 197 210 187 183 204 216 190 195 181 170 193 21
253 261 260 256 252 251 256 253 213 168 157 161 151 159 149 147 148 155 156 157 160 165 165 161 160 168 176 186 189 194 205 204 208 202 204 203 193 184 186 188 188 199 213 198 186 174 177 175 179
243 248 254 262 261 258 244 233 174 104 109 128 127 131 140 137 134 148 150 153 155 154 154 156 162 172 179 185 190 189 196 205 209 210 213 200 210 171 158 163 165 175 208 203 178 180 192 164 181
250 250 258 267 278 276 252 197 154 142 136 139 135 142 139 127 119 120 144 147 151 156 151 151 160 171 177 182 185 181 181 202 210 190 204 204 200 170 142 155 158 171 186 159 191 184 181 176 186
253 262 261 259 272 277 266 240 205 169 160 142 138 145 128 111 106 92 102 128 128 141 146 146 152 167 176 179 183 178 182 188 194 195 190 176 175 139 149 162 166 175 178 173 193 187 172 171 177
241 250 264 274 272 273 273 274 145 141 130 133 126 113 102 102 107 103 113 123 112 107 127 147 152 159 163 172 180 172 173 178 188 196 176 162 164 143 151 171 168 173 178 175 188 193 177 189 198
259 255 254 263 276 282 279 263 88 92 88 82 88 82 83 76 70 91 87 96 94 92 102 123 141 161 166 162 156 155 158 168 181 186 176 166 160 157 159 173 172 176 165 158 175 205 214 210 208